Location: Brockett
(40.8000°S, 175.4500°E)
Time: 11:58:53
(UTC+00:00)

ISS - Visible Passes

Search period start: 11 October 2024 00:00
Search period end: 21 October 2024 00:00
Orbit: 411 x 424 km, 51.6° (Epoch: 11 October)

Date Brightness Start Highest point End Pass type
(mag) Time Alt. Az. Time Alt. Az. Time Alt. Az.
11 Oct -2.7 07:30:38 10° NNW 07:33:33 26° NE 07:35:10 18° E visible
11 Oct -1.2 09:06:57 10° W 09:08:11 19° W 09:08:11 19° W visible
12 Oct -3.3 08:18:33 10° WNW 08:21:58 63° SSW 08:23:17 33° SE visible
13 Oct -3.8 07:30:11 10° NW 07:33:36 77° NE 07:37:03 10° SE visible
13 Oct -1.3 09:07:55 10° WSW 09:10:40 22° SSW 09:10:48 22° SSW visible
14 Oct -1.7 08:18:56 10° W 08:21:58 29° SSW 08:24:52 11° SE visible
14 Oct -0.1 09:57:39 10° SW 09:57:47 10° SW 09:57:47 10° SW visible
15 Oct -2.4 07:29:54 10° WNW 07:33:10 42° SSW 07:36:29 10° SE visible
15 Oct -0.9 09:08:27 10° SW 09:10:36 15° S 09:11:25 14° S visible
16 Oct -1.0 08:19:02 10° WSW 08:21:29 18° SSW 08:23:57 10° SSE visible
16 Oct -0.2 09:57:21 10° SSW 09:57:37 11° SSW 09:57:37 11° SSW visible
17 Oct -1.4 07:29:28 10° WSW 07:32:15 23° SSW 07:35:04 10° SSE visible
17 Oct -0.9 09:08:07 10° SSW 09:09:55 13° S 09:10:39 13° SSE visible
18 Oct -0.9 08:18:31 10° SW 08:20:26 14° S 08:22:21 10° SSE visible
18 Oct -0.3 09:55:49 10° SSW 09:56:17 12° SSW 09:56:17 12° SSW visible
19 Oct -1.0 07:28:38 10° SW 07:30:49 16° SSW 07:33:00 10° SSE visible
19 Oct -1.1 09:06:32 10° SSW 09:08:33 15° S 09:08:51 15° SSE visible
20 Oct -1.0 08:16:56 10° SSW 08:18:44 14° S 08:20:33 10° SE visible
20 Oct -0.5 09:53:23 10° SW 09:54:04 14° SSW 09:54:04 14° SSW visible
